Newport News, VA

7:42 AM EDT on May 25, 2018 (GMT -0400)
Newport News-Williamsburg International

Weather History for KPHF - January, 2014

Change the Weather History Date:

Thursday, January 16, 2014

  Actual Average Record
Temperature  
Mean Temperature 37 °F -  
Max Temperature 44 °F 44 °F 71 °F (1953)
Min Temperature 30 °F 28 °F 14 °F (2009)
Degree Days  
Heating Degree Days 28    
Moisture  
Dew Point 30 °F    
Average Humidity 70    
Maximum Humidity 85    
Minimum Humidity 57    
Precipitation  
Precipitation 0.00 in - - ()
Sea Level Pressure  
Sea Level Pressure 29.97 in    
Wind  
Wind Speed 9 mph (NNW)    
Max Wind Speed 16 mph    
Max Gust Speed 23 mph    
Visibility 10 miles    
Events      
Averages and records for this station are not official NWS values.
T = Trace of Precipitation, MM = Missing Value Source: NWS Daily Summary

Daily Weather History Graph

Daily Weather History Graph

Search for Another Location

Airport or City:

Astronomy

Jan. 16, 2014 Rise Set
Actual Time 7:18 AM EST 5:13 PM EST
Civil Twilight 6:49 AM EST 5:41 PM EST
Nautical Twilight 6:17 AM EST 6:13 PM EST
Astronomical Twilight 5:46 AM EST 6:45 PM EST
Moon 6:01 PM EST (1/16) 7:12 AM EST (1/16)
Length of Visible Light 10h 52m
Length of Day
9h 55m
Full, 100% of the Moon is Illuminated
Jan 16
Full
Jan 24
Last Quarter
Jan 30
New
Feb 6
First Quarter
Feb 14
Full

Hourly Weather History & Observations

Time (EST) Temp. Windchill Dew Point Humidity Pressure Visibility Wind Dir Wind Speed Gust Speed Precip Events Conditions
12:54 AM 44.1 °F 38.1 °F 37.9 °F 79% 29.91 in 10.0 mi North 11.5 mph - 0.00 in   Overcast
1:13 AM 42.8 °F 35.1 °F 35.6 °F 76% 29.92 in 10.0 mi North 16.1 mph 23.0 mph N/A   Overcast
1:43 AM 42.8 °F 36.6 °F 33.8 °F 70% 29.93 in 10.0 mi North 11.5 mph - N/A   Overcast
1:54 AM 42.1 °F 36.6 °F 34.0 °F 73% 29.93 in 10.0 mi North 9.2 mph 19.6 mph N/A   Overcast
2:54 AM 41.0 °F 34.7 °F 33.1 °F 73% 29.93 in 10.0 mi North 10.4 mph 20.7 mph N/A   Overcast
3:54 AM 39.9 °F 33.4 °F 32.0 °F 73% 29.93 in 10.0 mi North 10.4 mph 18.4 mph N/A   Overcast
4:54 AM 39.9 °F 34.5 °F 30.9 °F 70% 29.92 in 10.0 mi North 8.1 mph 19.6 mph N/A   Overcast
5:54 AM 39.0 °F 33.4 °F 28.9 °F 67% 29.93 in 10.0 mi North 8.1 mph - N/A   Overcast
6:54 AM 39.0 °F 33.4 °F 30.9 °F 73% 29.94 in 10.0 mi North 8.1 mph - N/A   Overcast
7:23 AM 39.2 °F 32.5 °F 30.2 °F 70% 29.98 in 10.0 mi NNW 10.4 mph - N/A   Overcast
7:54 AM 39.0 °F 32.8 °F 30.9 °F 73% 29.99 in 10.0 mi North 9.2 mph - N/A   Overcast
8:34 AM 39.2 °F 33.0 °F 30.2 °F 70% 30.01 in 10.0 mi North 9.2 mph - N/A   Overcast
8:47 AM 39.2 °F 32.5 °F 30.2 °F 70% 30.02 in 10.0 mi North 10.4 mph - N/A   Overcast
8:54 AM 39.0 °F 32.8 °F 30.0 °F 70% 30.02 in 10.0 mi NNW 9.2 mph - N/A   Overcast
9:54 AM 39.0 °F 32.3 °F 27.0 °F 62% 30.02 in 10.0 mi North 10.4 mph - N/A   Overcast
10:54 AM 39.0 °F 34.0 °F 28.9 °F 67% 30.01 in 10.0 mi North 6.9 mph - N/A   Overcast
11:54 AM 39.0 °F 32.3 °F 30.9 °F 73% 29.97 in 10.0 mi NNW 10.4 mph - N/A   Overcast
12:54 PM 42.1 °F 34.9 °F 30.0 °F 62% 29.91 in 10.0 mi NNW 13.8 mph - 0.00 in   Partly Cloudy
1:54 PM 42.1 °F 38.4 °F 28.0 °F 58% 29.92 in 10.0 mi NNW 5.8 mph - N/A   Overcast
2:51 PM 42.8 °F 41.1 °F 28.4 °F 57% 29.93 in 10.0 mi NNW 3.5 mph - N/A   Overcast
2:54 PM 42.1 °F - 28.9 °F 60% 29.94 in 10.0 mi Calm Calm - N/A   Overcast
3:54 PM 42.1 °F - 28.9 °F 60% 29.95 in 10.0 mi Calm Calm - N/A   Overcast
4:54 PM 41.0 °F 38.0 °F 28.9 °F 62% 29.96 in 10.0 mi West 4.6 mph - N/A   Mostly Cloudy
5:11 PM 39.2 °F 37.0 °F 28.4 °F 65% 29.97 in 10.0 mi West 3.5 mph - N/A   Scattered Clouds
5:54 PM 37.9 °F 34.4 °F 28.0 °F 68% 29.98 in 10.0 mi West 4.6 mph - N/A   Clear
6:54 PM 35.1 °F - 28.0 °F 76% 30.00 in 10.0 mi Calm Calm - N/A   Clear
7:54 PM 33.1 °F - 28.0 °F 82% 30.01 in 9.0 mi Calm Calm - N/A   Clear
8:54 PM 32.0 °F - 27.0 °F 82% 30.03 in 8.0 mi Calm Calm - N/A   Clear
9:54 PM 30.9 °F - 27.0 °F 85% 30.03 in 7.0 mi Calm Calm - N/A   Clear
10:54 PM 33.1 °F 30.0 °F 27.0 °F 78% 30.03 in 9.0 mi SSW 3.5 mph - N/A   Clear
11:54 PM 34.0 °F 27.2 °F 28.0 °F 79% 30.03 in 10.0 mi SW 8.1 mph - N/A   Clear